Tracking 29892 objects as of 21-Nov-2024
HD Live streaming from Space Station
objects crossing your sky now

STARLINK-4645

Track STARLINK-4645 now!
10-day predictions
STARLINK-4645 is classified as:


NORAD ID: 53743
Int'l Code: 2022-107AV
Perigee: 546.2 km
Apogee: 547.6 km
Inclination: 53.2 °
Period: 95.4 minutes
Semi major axis: 6917 km
RCS: Unknown
Launch date: September 5, 2022
Source: United States (US)
Launch site: AIR FORCE EASTERN TEST RANGE (AFETR)
Your satellite tracking list
Your tracking list is empty




NASA's NSSDC Master Catalog

Two Line Element Set (TLE):
1 53743U 22107AV  24325.81804977  .00001752  00000-0  12816-3 0  9990
2 53743  53.2174 231.5051 0000983  62.3381 297.7711 15.08837685123052
Source of the keplerian elements: AFSPC